TimeCDT,TemperatureF,Dew PointF,Humidity,Sea Level PressureIn,VisibilityMPH,Wind Direction,Wind SpeedMPH,Gust SpeedMPH,PrecipitationIn,Events,Conditions,WindDirDegrees,DateUTC
12:53 AM,75.0,69.1,82,29.87,10.0,ESE,6.9,-,N/A,,Clear,110,2013-09-09 05:53:00
1:53 AM,73.9,69.1,85,29.87,10.0,East,4.6,-,N/A,,Clear,80,2013-09-09 06:53:00
2:53 AM,73.9,70.0,87,29.87,10.0,East,5.8,-,N/A,,Clear,100,2013-09-09 07:53:00
3:23 AM,73.4,69.8,88,29.91,10.0,East,6.9,-,N/A,,Mostly Cloudy,90,2013-09-09 08:23:00
3:38 AM,73.4,69.8,88,29.91,10.0,East,6.9,-,N/A,,Scattered Clouds,80,2013-09-09 08:38:00
3:53 AM,73.9,70.0,87,29.86,10.0,East,8.1,-,N/A,,Partly Cloudy,90,2013-09-09 08:53:00
4:53 AM,73.0,70.0,90,29.86,10.0,East,6.9,-,N/A,,Clear,80,2013-09-09 09:53:00
5:53 AM,73.0,70.0,90,29.87,10.0,East,8.1,-,N/A,,Scattered Clouds,90,2013-09-09 10:53:00
6:20 AM,73.4,69.8,88,29.92,10.0,East,9.2,-,N/A,,Mostly Cloudy,100,2013-09-09 11:20:00
6:27 AM,73.4,69.8,88,29.92,10.0,East,8.1,-,N/A,,Mostly Cloudy,90,2013-09-09 11:27:00
6:53 AM,73.9,71.1,91,29.88,10.0,ESE,9.2,-,N/A,,Overcast,110,2013-09-09 11:53:00
7:13 AM,73.4,71.6,94,29.93,10.0,East,9.2,-,N/A,,Overcast,100,2013-09-09 12:13:00
7:43 AM,73.4,71.6,94,29.94,10.0,East,8.1,-,N/A,,Mostly Cloudy,100,2013-09-09 12:43:00
7:53 AM,73.9,71.1,91,29.91,10.0,East,8.1,-,N/A,,Mostly Cloudy,100,2013-09-09 12:53:00
8:05 AM,73.4,71.6,94,29.95,10.0,East,11.5,-,N/A,,Mostly Cloudy,100,2013-09-09 13:05:00
8:48 AM,75.2,71.6,89,29.96,10.0,East,6.9,-,N/A,,Overcast,100,2013-09-09 13:48:00
8:53 AM,75.0,71.1,87,29.92,10.0,East,11.5,-,N/A,,Overcast,100,2013-09-09 13:53:00
9:13 AM,75.2,71.6,89,29.97,10.0,East,8.1,-,N/A,,Overcast,100,2013-09-09 14:13:00
9:46 AM,77.0,71.6,83,29.97,10.0,SE,9.2,-,N/A,,Overcast,140,2013-09-09 14:46:00
9:53 AM,77.0,71.1,82,29.93,10.0,SE,9.2,-,N/A,,Overcast,140,2013-09-09 14:53:00
10:15 AM,78.8,71.6,78,29.97,10.0,SE,8.1,17.3,N/A,,Mostly Cloudy,130,2013-09-09 15:15:00
10:53 AM,81.0,70.0,69,29.93,10.0,SE,11.5,-,N/A,,Partly Cloudy,130,2013-09-09 15:53:00
11:53 AM,82.0,69.1,65,29.93,10.0,SSE,12.7,-,N/A,,Overcast,160,2013-09-09 16:53:00
12:53 PM,84.9,66.9,55,29.92,10.0,SE,10.4,-,N/A,,Scattered Clouds,140,2013-09-09 17:53:00
1:53 PM,86.0,66.9,53,29.89,10.0,SE,9.2,-,N/A,,Mostly Cloudy,140,2013-09-09 18:53:00
2:53 PM,88.0,68.0,51,29.86,10.0,SE,15.0,20.7,N/A,,Scattered Clouds,140,2013-09-09 19:53:00
3:53 PM,90.0,64.9,43,29.83,10.0,East,11.5,-,N/A,,Scattered Clouds,100,2013-09-09 20:53:00
4:53 PM,91.0,64.9,42,29.81,10.0,SSE,13.8,19.6,N/A,,Partly Cloudy,150,2013-09-09 21:53:00
5:53 PM,87.1,68.0,53,29.81,10.0,East,15.0,-,0.00,,Mostly Cloudy,100,2013-09-09 22:53:00
6:53 PM,87.1,66.9,51,29.81,10.0,ESE,15.0,-,0.00,,Partly Cloudy,110,2013-09-09 23:53:00
7:53 PM,86.0,66.0,51,29.82,10.0,ESE,13.8,19.6,N/A,,Clear,110,2013-09-10 00:53:00
8:53 PM,84.0,69.1,61,29.84,10.0,East,10.4,-,N/A,,Mostly Cloudy,90,2013-09-10 01:53:00
9:53 PM,82.0,69.1,65,29.87,10.0,East,15.0,20.7,N/A,,Clear,100,2013-09-10 02:53:00
10:53 PM,80.1,69.1,69,29.89,10.0,East,13.8,20.7,N/A,,Clear,100,2013-09-10 03:53:00
11:53 PM,79.0,69.1,72,29.89,10.0,East,9.2,19.6,N/A,,Clear,100,2013-09-10 04:53:00